"FRM_AIS_EDR_2041.DAT           ",2005-08-17T05:36:39.01 ,"1/0072336993.57226",    0,    0,  274896,"AIS","B1","B1","B0","B0","PISd",0,0,0,0,"B1", 0,15,   0, 0,    0,"AIS","N/A    ","OK ","OK ",    001177.217,    -061.779,    0092.649,    0015.026,    0047.643
"FRM_AIS_EDR_2041.DAT           ",2005-08-17T05:36:46.55 ,"1/0072337001.27290",    0,    1,  274896,"AIS","B1","B1","B0","B0","PISd",0,0,0,0,"B1", 0,15,   0, 0,    0,"AIS","N/A    ","OK ","OK ",    001166.829,    -061.453,    0092.704,    0015.032,    0047.521
"FRM_AIS_EDR_2041.DAT           ",2005-08-17T05:36:54.09 ,"1/0072337008.62889",    0,    2,  274896,"AIS","B1","B1","B0","B0","PISd",0,0,0,0,"B1", 0,15,   0, 0,    0,"AIS","N/A    ","OK ","OK ",    001156.471,    -061.126,    0092.757,    0015.037,    0047.399
"FRM_AIS_EDR_2041.DAT           ",2005-08-17T05:37:01.64 ,"1/0072337016.32952",    0,    3,  274896,"AIS","B1","B1","B0","B0","PISd",0,0,0,0,"B1", 0,15,   0, 0,    0,"AIS","N/A    ","OK ","OK ",    001146.146,    -060.797,    0092.810,    0015.043,    0047.279
"FRM_AIS_EDR_2041.DAT           ",2005-08-17T05:37:09.18 ,"1/0072337024.03016",    0,    4,  274896,"AIS","B1","B1","B0","B0","PISd",0,0,0,0,"B1", 0,15,   0, 0,    0,"AIS","N/A    ","OK ","OK ",    001135.852,    -060.467,    0092.861,    0015.049,    0047.159
"FRM_AIS_EDR_2041.DAT           ",2005-08-17T05:37:16.72 ,"1/0072337031.38615",    0,    5,  274896,"AIS","B1","B1","B0","B0","PISd",0,0,0,0,"B1", 0,15,   0, 0,    0,"AIS","N/A    ","OK ","OK ",    001125.592,    -060.135,    0092.911,    0015.054,    0047.041
"FRM_AIS_EDR_2041.DAT           ",2005-08-17T05:37:24.27 ,"1/0072337039.08678",    0,    6,  274896,"AIS","B1","B1","B0","B0","PISd",0,0,0,0,"B1", 0,15,   0, 0,    0,"AIS","N/A    ","OK ","OK ",    001115.364,    -059.802,    0092.959,    0015.059,    0046.923
"FRM_AIS_EDR_2041.DAT           ",2005-08-17T05:37:31.81 ,"1/0072337046.44278",    0,    7,  274896,"AIS","B1","B1","B0","B0","PISd",0,0,0,0,"B1", 0,15,   0, 0,    0,"AIS","N/A    ","OK ","OK ",    001105.170,    -059.467,    0093.007,    0015.064,    0046.807
"FRM_AIS_EDR_2041.DAT           ",2005-08-17T05:37:39.35 ,"1/0072337054.14341",    0,    8,  274896,"AIS","B1","B1","B0","B0","PISd",0,0,0,0,"B1", 0,15,   0, 0,    0,"AIS","N/A    ","OK ","OK ",    001095.010,    -059.130,    0093.053,    0015.069,    0046.692
"FRM_AIS_EDR_2041.DAT           ",2005-08-17T05:37:46.90 ,"1/0072337061.49940",    0,    9,  274896,"AIS","B1","B1","B0","B0","PISd",0,0,0,0,"B1", 0,15,   0, 0,    0,"AIS","N/A    ","OK ","OK ",    001084.885,    -058.792,    0093.098,    0015.074,    0046.577
"FRM_AIS_EDR_2041.DAT           ",2005-08-17T05:37:54.44 ,"1/0072337069.20004",    0,   10,  274896,"AIS","B1","B1","B0","B0","PISd",0,0,0,0,"B1", 0,15,   0, 0,    0,"AIS","N/A    ","OK ","OK ",    001074.796,    -058.452,    0093.142,    0015.079,    0046.464
"FRM_AIS_EDR_2041.DAT           ",2005-08-17T05:38:01.98 ,"1/0072337076.55603",    0,   11,  274896,"AIS","B1","B1","B0","B0","PISd",0,0,0,0,"B1", 0,15,   0, 0,    0,"AIS","N/A    ","OK ","OK ",    001064.741,    -058.111,    0093.184,    0015.084,    0046.352
"FRM_AIS_EDR_2041.DAT           ",2005-08-17T05:38:09.53 ,"1/0072337084.25666",    0,   12,  274896,"AIS","B1","B1","B0","B0","PISd",0,0,0,0,"B1", 0,15,   0, 0,    0,"AIS","N/A    ","OK ","OK ",    001054.724,    -057.769,    0093.226,    0015.089,    0046.242
"FRM_AIS_EDR_2041.DAT           ",2005-08-17T05:38:17.07 ,"1/0072337091.61266",    0,   13,  274896,"AIS","B1","B1","B0","B0","PISd",0,0,0,0,"B1", 0,15,   0, 0,    0,"AIS","N/A    ","OK ","OK ",    001044.742,    -057.424,    0093.267,    0015.094,    0046.132
"FRM_AIS_EDR_2041.DAT           ",2005-08-17T05:38:24.61 ,"1/0072337099.31329",    0,   14,  274896,"AIS","B1","B1","B0","B0","PISd",0,0,0,0,"B1", 0,15,   0, 0,    0,"AIS","N/A    ","OK ","OK ",    001034.799,    -057.078,    0093.306,    0015.099,    0046.024
"FRM_AIS_EDR_2041.DAT           ",2005-08-17T05:38:32.16 ,"1/0072337107.01392",    0,   15,  274896,"AIS","B1","B1","B0","B0","PISd",0,0,0,0,"B1", 0,15,   0, 0,    0,"AIS","N/A    ","OK ","OK ",    001024.893,    -056.731,    0093.345,    0015.103,    0045.918
"FRM_AIS_EDR_2041.DAT           ",2005-08-17T05:38:39.70 ,"1/0072337114.36992",    0,   16,  274896,"AIS","B1","B1","B0","B0","PISd",0,0,0,0,"B1", 0,15,   0, 0,    0,"AIS","N/A    ","OK ","OK ",    001015.025,    -056.382,    0093.383,    0015.108,    0045.812
"FRM_AIS_EDR_2041.DAT           ",2005-08-17T05:38:47.24 ,"1/0072337122.07055",    0,   17,  274896,"AIS","B1","B1","B0","B0","PISd",0,0,0,0,"B1", 0,15,   0, 0,    0,"AIS","N/A    ","OK ","OK ",    001005.197,    -056.031,    0093.419,    0015.112,    0045.708
"FRM_AIS_EDR_2041.DAT           ",2005-08-17T05:38:54.79 ,"1/0072337129.42654",    0,   18,  274896,"AIS","B1","B1","B0","B0","PISd",0,0,0,0,"B1", 0,15,   0, 0,    0,"AIS","N/A    ","OK ","OK ",    000995.408,    -055.679,    0093.455,    0015.117,    0045.606
"FRM_AIS_EDR_2041.DAT           ",2005-08-17T05:39:02.33 ,"1/0072337137.12718",    0,   19,  274896,"AIS","B1","B1","B0","B0","PISd",0,0,0,0,"B1", 0,15,   0, 0,    0,"AIS","N/A    ","OK ","OK ",    000985.659,    -055.325,    0093.490,    0015.121,    0045.505
"FRM_AIS_EDR_2041.DAT           ",2005-08-17T05:39:09.87 ,"1/0072337144.48317",    0,   20,  274896,"AIS","B1","B1","B0","B0","PISd",0,0,0,0,"B1", 0,15,   0, 0,    0,"AIS","N/A    ","OK ","OK ",    000975.951,    -054.969,    0093.524,    0015.125,    0045.406
"FRM_AIS_EDR_2041.DAT           ",2005-08-17T05:39:17.41 ,"1/0072337152.18380",    0,   21,  274896,"AIS","B1","B1","B0","B0","PISd",0,0,0,0,"B1", 0,15,   0, 0,    0,"AIS","N/A    ","OK ","OK ",    000966.283,    -054.612,    0093.557,    0015.130,    0045.308
"FRM_AIS_EDR_2041.DAT           ",2005-08-17T05:39:24.96 ,"1/0072337159.53980",    0,   22,  274896,"AIS","B1","B1","B0","B0","PISd",0,0,0,0,"B1", 0,15,   0, 0,    0,"AIS","N/A    ","OK ","OK ",    000956.658,    -054.254,    0093.590,    0015.134,    0045.211
"FRM_AIS_EDR_2041.DAT           ",2005-08-17T05:39:32.50 ,"1/0072337167.24043",    0,   23,  274896,"AIS","B1","B1","B0","B0","PISd",0,0,0,0,"B1", 0,15,   0, 0,    0,"AIS","N/A    ","OK ","OK ",    000947.075,    -053.893,    0093.621,    0015.138,    0045.117
"FRM_AIS_EDR_2041.DAT           ",2005-08-17T05:39:40.04 ,"1/0072337174.59642",    0,   24,  274896,"AIS","B1","B1","B0","B0","PISd",0,0,0,0,"B1", 0,15,   0, 0,    0,"AIS","N/A    ","OK ","OK ",    000937.535,    -053.532,    0093.652,    0015.142,    0045.024
"FRM_AIS_EDR_2041.DAT           ",2005-08-17T05:39:47.59 ,"1/0072337182.29706",    0,   25,  274896,"AIS","B1","B1","B0","B0","PISd",0,0,0,0,"B1", 0,15,   0, 0,    0,"AIS","N/A    ","OK ","OK ",    000928.038,    -053.168,    0093.682,    0015.146,    0044.933
"FRM_AIS_EDR_2041.DAT           ",2005-08-17T05:39:55.13 ,"1/0072337189.65305",    0,   26,  274896,"AIS","B1","B1","B0","B0","PISd",0,0,0,0,"B1", 0,15,   0, 0,    0,"AIS","N/A    ","OK ","OK ",    000918.586,    -052.803,    0093.711,    0015.150,    0044.843
"FRM_AIS_EDR_2041.DAT           ",2005-08-17T05:40:02.67 ,"1/0072337197.35368",    0,   27,  274896,"AIS","B1","B1","B0","B0","PISd",0,0,0,0,"B1", 0,15,   0, 0,    0,"AIS","N/A    ","OK ","OK ",    000909.178,    -052.436,    0093.739,    0015.154,    0044.756
"FRM_AIS_EDR_2041.DAT           ",2005-08-17T05:40:10.22 ,"1/0072337205.05431",    0,   28,  274896,"AIS","B1","B1","B0","B0","PISd",0,0,0,0,"B1", 0,15,   0, 0,    0,"AIS","N/A    ","OK ","OK ",    000899.816,    -052.068,    0093.767,    0015.158,    0044.670
"FRM_AIS_EDR_2041.DAT           ",2005-08-17T05:40:17.76 ,"1/0072337212.41031",    0,   29,  274896,"AIS","B1","B1","B0","B0","PISd",0,0,0,0,"B1", 0,15,   0, 0,    0,"AIS","N/A    ","OK ","OK ",    000890.499,    -051.698,    0093.794,    0015.162,    0044.586
"FRM_AIS_EDR_2041.DAT           ",2005-08-17T05:40:25.30 ,"1/0072337220.11094",    0,   30,  274896,"AIS","B1","B1","B0","B0","PISd",0,0,0,0,"B1", 0,15,   0, 0,    0,"AIS","N/A    ","OK ","OK ",    000881.229,    -051.326,    0093.820,    0015.166,    0044.505
"FRM_AIS_EDR_2041.DAT           ",2005-08-17T05:40:32.85 ,"1/0072337227.46693",    0,   31,  274896,"AIS","B1","B1","B0","B0","PISd",0,0,0,0,"B1", 0,15,   0, 0,    0,"AIS","N/A    ","OK ","OK ",    000872.006,    -050.953,    0093.846,    0015.169,    0044.425
"FRM_AIS_EDR_2041.DAT           ",2005-08-17T05:40:40.39 ,"1/0072337235.16757",    0,   32,  274896,"AIS","B1","B1","B0","B0","PISd",0,0,0,0,"B1", 0,15,   0, 0,    0,"AIS","N/A    ","OK ","OK ",    000862.831,    -050.578,    0093.871,    0015.173,    0044.347
"FRM_AIS_EDR_2041.DAT           ",2005-08-17T05:40:47.93 ,"1/0072337242.52356",    0,   33,  274896,"AIS","B1","B1","B0","B0","PISd",0,0,0,0,"B1", 0,15,   0, 0,    0,"AIS","N/A    ","OK ","OK ",    000853.704,    -050.202,    0093.895,    0015.177,    0044.271
"FRM_AIS_EDR_2041.DAT           ",2005-08-17T05:40:55.48 ,"1/0072337250.22419",    0,   34,  274896,"AIS","B1","B1","B0","B0","PISd",0,0,0,0,"B1", 0,15,   0, 0,    0,"AIS","N/A    ","OK ","OK ",    000844.626,    -049.824,    0093.919,    0015.180,    0044.198
"FRM_AIS_EDR_2041.DAT           ",2005-08-17T05:41:03.02 ,"1/0072337257.58019",    0,   35,  274896,"AIS","B1","B1","B0","B0","PISd",0,0,0,0,"B1", 0,15,   0, 0,    0,"AIS","N/A    ","OK ","OK ",    000835.597,    -049.444,    0093.942,    0015.184,    0044.126
"FRM_AIS_EDR_2041.DAT           ",2005-08-17T05:41:10.56 ,"1/0072337265.28082",    0,   36,  274896,"AIS","B1","B1","B0","B0","PISd",0,0,0,0,"B1", 0,15,   0, 0,    0,"AIS","N/A    ","OK ","OK ",    000826.619,    -049.063,    0093.964,    0015.187,    0044.057
"FRM_AIS_EDR_2041.DAT           ",2005-08-17T05:41:18.11 ,"1/0072337272.63681",    0,   37,  274896,"AIS","B1","B1","B0","B0","PISd",0,0,0,0,"B1", 0,15,   0, 0,    0,"AIS","N/A    ","OK ","OK ",    000817.692,    -048.680,    0093.986,    0015.191,    0043.990
"FRM_AIS_EDR_2041.DAT           ",2005-08-17T05:41:25.65 ,"1/0072337280.33745",    0,   38,  274896,"AIS","B1","B1","B0","B0","PISd",0,0,0,0,"B1", 0,15,   0, 0,    0,"AIS","N/A    ","OK ","OK ",    000808.816,    -048.295,    0094.007,    0015.194,    0043.925
"FRM_AIS_EDR_2041.DAT           ",2005-08-17T05:41:33.19 ,"1/0072337288.03808",    0,   39,  274896,"AIS","B1","B1","B0","B0","PISd",0,0,0,0,"B1", 0,15,   0, 0,    0,"AIS","N/A    ","OK ","OK ",    000799.992,    -047.909,    0094.028,    0015.198,    0043.863
"FRM_AIS_EDR_2041.DAT           ",2005-08-17T05:41:40.74 ,"1/0072337295.39407",    0,   40,  274896,"AIS","B1","B1","B0","B0","PISd",0,0,0,0,"B1", 0,15,   0, 0,    0,"AIS","N/A    ","OK ","OK ",    000791.221,    -047.521,    0094.048,    0015.201,    0043.803
"FRM_AIS_EDR_2041.DAT           ",2005-08-17T05:41:48.28 ,"1/0072337303.09471",    0,   41,  274896,"AIS","B1","B1","B0","B0","PISd",0,0,0,0,"B1", 0,15,   0, 0,    0,"AIS","N/A    ","OK ","OK ",    000782.503,    -047.132,    0094.068,    0015.204,    0043.746
"FRM_AIS_EDR_2041.DAT           ",2005-08-17T05:41:55.82 ,"1/0072337310.45070",    0,   42,  274896,"AIS","B1","B1","B0","B0","PISd",0,0,0,0,"B1", 0,15,   0, 0,    0,"AIS","N/A    ","OK ","OK ",    000773.839,    -046.741,    0094.087,    0015.208,    0043.691
"FRM_AIS_EDR_2041.DAT           ",2005-08-17T05:42:03.37 ,"1/0072337318.15133",    0,   43,  274896,"AIS","B1","B1","B0","B0","PISd",0,0,0,0,"B1", 0,15,   0, 0,    0,"AIS","N/A    ","OK ","OK ",    000765.230,    -046.348,    0094.106,    0015.211,    0043.639
"FRM_AIS_EDR_2041.DAT           ",2005-08-17T05:42:10.91 ,"1/0072337325.50733",    0,   44,  274896,"AIS","B1","B1","B0","B0","PISd",0,0,0,0,"B1", 0,15,   0, 0,    0,"AIS","N/A    ","OK ","OK ",    000756.676,    -045.953,    0094.124,    0015.214,    0043.589
"FRM_AIS_EDR_2041.DAT           ",2005-08-17T05:42:18.45 ,"1/0072337333.20796",    0,   45,  274896,"AIS","B1","B1","B0","B0","PISd",0,0,0,0,"B1", 0,15,   0, 0,    0,"AIS","N/A    ","OK ","OK ",    000748.178,    -045.557,    0094.141,    0015.217,    0043.542
"FRM_AIS_EDR_2041.DAT           ",2005-08-17T05:42:25.99 ,"1/0072337340.56395",    0,   46,  274896,"AIS","B1","B1","B0","B0","PISd",0,0,0,0,"B1", 0,15,   0, 0,    0,"AIS","N/A    ","OK ","OK ",    000739.737,    -045.160,    0094.158,    0015.221,    0043.497
"FRM_AIS_EDR_2041.DAT           ",2005-08-17T05:42:33.54 ,"1/0072337348.26459",    0,   47,  274896,"AIS","B1","B1","B0","B0","PISd",0,0,0,0,"B1", 0,15,   0, 0,    0,"AIS","N/A    ","OK ","OK ",    000731.353,    -044.761,    0094.175,    0015.224,    0043.456
"FRM_AIS_EDR_2041.DAT           ",2005-08-17T05:42:41.08 ,"1/0072337355.62058",    0,   48,  274896,"AIS","B1","B1","B0","B0","PISd",0,0,0,0,"B1", 0,15,   0, 0,    0,"AIS","N/A    ","OK ","OK ",    000723.027,    -044.360,    0094.191,    0015.227,    0043.417
"FRM_AIS_EDR_2041.DAT           ",2005-08-17T05:42:48.62 ,"1/0072337363.32121",    0,   49,  274896,"AIS","B1","B1","B0","B0","PISd",0,0,0,0,"B1", 0,15,   0, 0,    0,"AIS","N/A    ","OK ","OK ",    000714.760,    -043.957,    0094.207,    0015.230,    0043.380
"FRM_AIS_EDR_2041.DAT           ",2005-08-17T05:42:56.17 ,"1/0072337371.02185",    0,   50,  274896,"AIS","B1","B1","B0","B0","PISd",0,0,0,0,"B1", 0,15,   0, 0,    0,"AIS","N/A    ","OK ","OK ",    000706.552,    -043.553,    0094.222,    0015.233,    0043.347
"FRM_AIS_EDR_2041.DAT           ",2005-08-17T05:43:03.71 ,"1/0072337378.37784",    0,   51,  274896,"AIS","B1","B1","B0","B0","PISd",0,0,0,0,"B1", 0,15,   0, 0,    0,"AIS","N/A    ","OK ","OK ",    000698.403,    -043.148,    0094.237,    0015.236,    0043.317
"FRM_AIS_EDR_2041.DAT           ",2005-08-17T05:43:11.25 ,"1/0072337386.07847",    0,   52,  274896,"AIS","B1","B1","B0","B0","PISd",0,0,0,0,"B1", 0,15,   0, 0,    0,"AIS","N/A    ","OK ","OK ",    000690.316,    -042.740,    0094.251,    0015.239,    0043.289
"FRM_AIS_EDR_2041.DAT           ",2005-08-17T05:43:18.80 ,"1/0072337393.43446",    0,   53,  274896,"AIS","B1","B1","B0","B0","PISd",0,0,0,0,"B1", 0,15,   0, 0,    0,"AIS","N/A    ","OK ","OK ",    000682.290,    -042.331,    0094.265,    0015.242,    0043.265
"FRM_AIS_EDR_2041.DAT           ",2005-08-17T05:43:26.34 ,"1/0072337401.13510",    0,   54,  274896,"AIS","B1","B1","B0","B0","PISd",0,0,0,0,"B1", 0,15,   0, 0,    0,"AIS","N/A    ","OK ","OK ",    000674.325,    -041.921,    0094.279,    0015.245,    0043.243
"FRM_AIS_EDR_2041.DAT           ",2005-08-17T05:43:33.88 ,"1/0072337408.49109",    0,   55,  274896,"AIS","B1","B1","B0","B0","PISd",0,0,0,0,"B1", 0,15,   0, 0,    0,"AIS","N/A    ","OK ","OK ",    000666.424,    -041.509,    0094.292,    0015.248,    0043.225
"FRM_AIS_EDR_2041.DAT           ",2005-08-17T05:43:41.43 ,"1/0072337416.19172",    0,   56,  274896,"AIS","B1","B1","B0","B0","PISd",0,0,0,0,"B1", 0,15,   0, 0,    0,"AIS","N/A    ","OK ","OK ",    000658.585,    -041.095,    0094.305,    0015.251,    0043.210
"FRM_AIS_EDR_2041.DAT           ",2005-08-17T05:43:48.97 ,"1/0072337423.54772",    0,   57,  274896,"AIS","B1","B1","B0","B0","PISd",0,0,0,0,"B1", 0,15,   0, 0,    0,"AIS","N/A    ","OK ","OK ",    000650.811,    -040.680,    0094.317,    0015.254,    0043.198
"FRM_AIS_EDR_2041.DAT           ",2005-08-17T05:43:56.51 ,"1/0072337431.24835",    0,   58,  274896,"AIS","B1","B1","B0","B0","PISd",0,0,0,0,"B1", 0,15,   0, 0,    0,"AIS","N/A    ","OK ","OK ",    000643.102,    -040.263,    0094.329,    0015.257,    0043.189
"FRM_AIS_EDR_2041.DAT           ",2005-08-17T05:44:04.06 ,"1/0072337438.60434",    0,   59,  274896,"AIS","B1","B1","B0","B0","PISd",0,0,0,0,"B1", 0,15,   0, 0,    0,"AIS","N/A    ","OK ","OK ",    000635.457,    -039.844,    0094.341,    0015.259,    0043.183
"FRM_AIS_EDR_2041.DAT           ",2005-08-17T05:44:11.60 ,"1/0072337446.30498",    0,   60,  274896,"AIS","B1","B1","B0","B0","PISd",0,0,0,0,"B1", 0,15,   0, 0,    0,"AIS","N/A    ","OK ","OK ",    000627.879,    -039.424,    0094.352,    0015.262,    0043.181
"FRM_AIS_EDR_2041.DAT           ",2005-08-17T05:44:19.14 ,"1/0072337454.00561",    0,   61,  274896,"AIS","B1","B1","B0","B0","PISd",0,0,0,0,"B1", 0,15,   0, 0,    0,"AIS","N/A    ","OK ","OK ",    000620.368,    -039.003,    0094.363,    0015.265,    0043.182
"FRM_AIS_EDR_2041.DAT           ",2005-08-17T05:44:26.69 ,"1/0072337461.36160",    0,   62,  274896,"AIS","B1","B1","B0","B0","PISd",0,0,0,0,"B1", 0,15,   0, 0,    0,"AIS","N/A    ","OK ","OK ",    000612.924,    -038.580,    0094.374,    0015.268,    0043.186
"FRM_AIS_EDR_2041.DAT           ",2005-08-17T05:44:34.23 ,"1/0072337469.06224",    0,   63,  274896,"AIS","B1","B1","B0","B0","PISd",0,0,0,0,"B1", 0,15,   0, 0,    0,"AIS","N/A    ","OK ","OK ",    000605.548,    -038.155,    0094.384,    0015.270,    0043.194
"FRM_AIS_EDR_2041.DAT           ",2005-08-17T05:44:41.77 ,"1/0072337476.41823",    0,   64,  274896,"AIS","B1","B1","B0","B0","PISd",0,0,0,0,"B1", 0,15,   0, 0,    0,"AIS","N/A    ","OK ","OK ",    000598.240,    -037.729,    0094.394,    0015.273,    0043.205
"FRM_AIS_EDR_2041.DAT           ",2005-08-17T05:44:49.32 ,"1/0072337484.11886",    0,   65,  274896,"AIS","B1","B1","B0","B0","PISd",0,0,0,0,"B1", 0,15,   0, 0,    0,"AIS","N/A    ","OK ","OK ",    000591.003,    -037.301,    0094.404,    0015.276,    0043.220
"FRM_AIS_EDR_2041.DAT           ",2005-08-17T05:44:56.86 ,"1/0072337491.47486",    0,   66,  274896,"AIS","B1","B1","B0","B0","PISd",0,0,0,0,"B1", 0,15,   0, 0,    0,"AIS","N/A    ","OK ","OK ",    000583.835,    -036.871,    0094.413,    0015.278,    0043.238
"FRM_AIS_EDR_2041.DAT           ",2005-08-17T05:45:04.40 ,"1/0072337499.17549",    0,   67,  274896,"AIS","B1","B1","B0","B0","PISd",0,0,0,0,"B1", 0,15,   0, 0,    0,"AIS","N/A    ","OK ","OK ",    000576.738,    -036.440,    0094.422,    0015.281,    0043.260
"FRM_AIS_EDR_2041.DAT           ",2005-08-17T05:45:11.95 ,"1/0072337506.53148",    0,   68,  274896,"AIS","B1","B1","B0","B0","PISd",0,0,0,0,"B1", 0,15,   0, 0,    0,"AIS","N/A    ","OK ","OK ",    000569.713,    -036.008,    0094.431,    0015.284,    0043.285
"FRM_AIS_EDR_2041.DAT           ",2005-08-17T05:45:19.49 ,"1/0072337514.23212",    0,   69,  274896,"AIS","B1","B1","B0","B0","PISd",0,0,0,0,"B1", 0,15,   0, 0,    0,"AIS","N/A    ","OK ","OK ",    000562.760,    -035.574,    0094.439,    0015.286,    0043.314
"FRM_AIS_EDR_2041.DAT           ",2005-08-17T05:45:27.03 ,"1/0072337521.58811",    0,   70,  274896,"AIS","B1","B1","B0","B0","PISd",0,0,0,0,"B1", 0,15,   0, 0,    0,"AIS","N/A    ","OK ","OK ",    000555.880,    -035.139,    0094.447,    0015.289,    0043.347
"FRM_AIS_EDR_2041.DAT           ",2005-08-17T05:45:34.57 ,"1/0072337529.28874",    0,   71,  274896,"AIS","B1","B1","B0","B0","PISd",0,0,0,0,"B1", 0,15,   0, 0,    0,"AIS","N/A    ","OK ","OK ",    000549.073,    -034.702,    0094.455,    0015.291,    0043.383
"FRM_AIS_EDR_2041.DAT           ",2005-08-17T05:45:42.12 ,"1/0072337536.64474",    0,   72,  274896,"AIS","B1","B1","B0","B0","PISd",0,0,0,0,"B1", 0,15,   0, 0,    0,"AIS","N/A    ","OK ","OK ",    000542.341,    -034.263,    0094.463,    0015.294,    0043.423
"FRM_AIS_EDR_2041.DAT           ",2005-08-17T05:45:49.66 ,"1/0072337544.34537",    0,   73,  274896,"AIS","B1","B1","B0","B0","PISd",0,0,0,0,"B1", 0,15,   0, 0,    0,"AIS","N/A    ","OK ","OK ",    000535.684,    -033.823,    0094.470,    0015.296,    0043.466
"FRM_AIS_EDR_2041.DAT           ",2005-08-17T05:45:57.20 ,"1/0072337552.04600",    0,   74,  274896,"AIS","B1","B1","B0","B0","PISd",0,0,0,0,"B1", 0,15,   0, 0,    0,"AIS","N/A    ","OK ","OK ",    000529.102,    -033.382,    0094.477,    0015.299,    0043.514
"FRM_AIS_EDR_2041.DAT           ",2005-08-17T05:46:04.75 ,"1/0072337559.40200",    0,   75,  274896,"AIS","B1","B1","B0","B0","PISd",0,0,0,0,"B1", 0,15,   0, 0,    0,"AIS","N/A    ","OK ","OK ",    000522.596,    -032.939,    0094.484,    0015.301,    0043.565
"FRM_AIS_EDR_2041.DAT           ",2005-08-17T05:46:12.29 ,"1/0072337567.10263",    0,   76,  274896,"AIS","B1","B1","B0","B0","PISd",0,0,0,0,"B1", 0,15,   0, 0,    0,"AIS","N/A    ","OK ","OK ",    000516.168,    -032.495,    0094.490,    0015.304,    0043.620
"FRM_AIS_EDR_2041.DAT           ",2005-08-17T05:46:19.83 ,"1/0072337574.45862",    0,   77,  274896,"AIS","B1","B1","B0","B0","PISd",0,0,0,0,"B1", 0,15,   0, 0,    0,"AIS","N/A    ","OK ","OK ",    000509.817,    -032.049,    0094.497,    0015.306,    0043.678
"FRM_AIS_EDR_2041.DAT           ",2005-08-17T05:46:27.38 ,"1/0072337582.15925",    0,   78,  274896,"AIS","B1","B1","B0","B0","PISd",0,0,0,0,"B1", 0,15,   0, 0,    0,"AIS","N/A    ","OK ","OK ",    000503.544,    -031.602,    0094.503,    0015.309,    0043.741
"FRM_AIS_EDR_2041.DAT           ",2005-08-17T05:46:34.92 ,"1/0072337589.51525",    0,   79,  274896,"AIS","B1","B1","B0","B0","PISd",0,0,0,0,"B1", 0,15,   0, 0,    0,"AIS","N/A    ","OK ","OK ",    000497.351,    -031.153,    0094.508,    0015.311,    0043.807
"FRM_AIS_EDR_2041.DAT           ",2005-08-17T05:46:42.46 ,"1/0072337597.21588",    0,   80,  274896,"AIS","B1","B1","B0","B0","PISd",0,0,0,0,"B1", 0,15,   0, 0,    0,"AIS","N/A    ","OK ","OK ",    000491.236,    -030.703,    0094.514,    0015.314,    0043.878
"FRM_AIS_EDR_2041.DAT           ",2005-08-17T05:46:50.01 ,"1/0072337604.57187",    0,   81,  274896,"AIS","B1","B1","B0","B0","PISd",0,0,0,0,"B1", 0,15,   0, 0,    0,"AIS","N/A    ","OK ","OK ",    000485.203,    -030.252,    0094.519,    0015.316,    0043.952
"FRM_AIS_EDR_2041.DAT           ",2005-08-17T05:46:57.55 ,"1/0072337612.27251",    0,   82,  274896,"AIS","B1","B1","B0","B0","PISd",0,0,0,0,"B1", 0,15,   0, 0,    0,"AIS","N/A    ","OK ","OK ",    000479.250,    -029.799,    0094.524,    0015.318,    0044.030
"FRM_AIS_EDR_2041.DAT           ",2005-08-17T05:47:05.09 ,"1/0072337619.62850",    0,   83,  274896,"AIS","B1","B1","B0","B0","PISd",0,0,0,0,"B1", 0,15,   0, 0,    0,"AIS","N/A    ","OK ","OK ",    000473.379,    -029.345,    0094.529,    0015.321,    0044.112
"FRM_AIS_EDR_2041.DAT           ",2005-08-17T05:47:12.64 ,"1/0072337627.32913",    0,   84,  274896,"AIS","B1","B1","B0","B0","PISd",0,0,0,0,"B1", 0,15,   0, 0,    0,"AIS","N/A    ","OK ","OK ",    000467.590,    -028.890,    0094.534,    0015.323,    0044.198
"FRM_AIS_EDR_2041.DAT           ",2005-08-17T05:47:20.18 ,"1/0072337635.02977",    0,   85,  274896,"AIS","B1","B1","B0","B0","PISd",0,0,0,0,"B1", 0,15,   0, 0,    0,"AIS","N/A    ","OK ","OK ",    000461.883,    -028.433,    0094.538,    0015.326,    0044.288
"FRM_AIS_EDR_2041.DAT           ",2005-08-17T05:47:27.72 ,"1/0072337642.38576",    0,   86,  274896,"AIS","B1","B1","B0","B0","PISd",0,0,0,0,"B1", 0,15,   0, 0,    0,"AIS","N/A    ","OK ","OK ",    000456.261,    -027.975,    0094.543,    0015.328,    0044.381
"FRM_AIS_EDR_2041.DAT           ",2005-08-17T05:47:35.27 ,"1/0072337650.08640",    0,   87,  274896,"AIS","B1","B1","B0","B0","PISd",0,0,0,0,"B1", 0,15,   0, 0,    0,"AIS","N/A    ","OK ","OK ",    000450.722,    -027.515,    0094.547,    0015.330,    0044.479
"FRM_AIS_EDR_2041.DAT           ",2005-08-17T05:47:42.81 ,"1/0072337657.44239",    0,   88,  274896,"AIS","B1","B1","B0","B0","PISd",0,0,0,0,"B1", 0,15,   0, 0,    0,"AIS","N/A    ","OK ","OK ",    000445.269,    -027.055,    0094.551,    0015.332,    0044.581
"FRM_AIS_EDR_2041.DAT           ",2005-08-17T05:47:50.35 ,"1/0072337665.14302",    0,   89,  274896,"AIS","B1","B1","B0","B0","PISd",0,0,0,0,"B1", 0,15,   0, 0,    0,"AIS","N/A    ","OK ","OK ",    000439.901,    -026.592,    0094.554,    0015.335,    0044.686
"FRM_AIS_EDR_2041.DAT           ",2005-08-17T05:47:57.90 ,"1/0072337672.49901",    0,   90,  274896,"AIS","B1","B1","B0","B0","PISd",0,0,0,0,"B1", 0,15,   0, 0,    0,"AIS","N/A    ","OK ","OK ",    000434.618,    -026.129,    0094.558,    0015.337,    0044.796